| time (UTC) | temp C | wind direction | speed KPH | gust KPH | rain 1hr cm | rain 24hr cm | rain mn cm | humidity % | barometer mb |
| 20260903111004 | 17 | 121 | 4.8 | 4.8 | 0.00 | 0.00 | 0.00 | 44 | 1020.7 |
| 20260903110504 | 17 | 121 | 4.8 | 4.8 | 0.00 | 0.00 | 0.00 | 44 | 1020.8 |
| 20260903110003 | 17 | 121 | 4.8 | 4.8 | 0.00 | 0.00 | 0.00 | 44 | 1020.7 |
| 20260903105504 | 17 | 121 | 4.8 | 4.8 | 0.00 | 0.00 | 0.00 | 44 | 1021.0 |
| 20260903105004 | 17 | 121 | 4.8 | 4.8 | 0.00 | 0.00 | 0.00 | 44 | 1020.9 |
| 20260903104504 | 17 | 121 | 4.8 | 4.8 | 0.00 | 0.00 | 0.00 | 44 | 1021.0 |
| 20260903104004 | 17 | 121 | 4.8 | 4.8 | 0.00 | 0.00 | 0.00 | 44 | 1021.0 |
| 20260903103504 | 17 | 121 | 4.8 | 4.8 | 0.00 | 0.00 | 0.00 | 44 | 1021.0 |
| 20260903103003 | 17 | 121 | 4.8 | 4.8 | 0.00 | 0.00 | 0.00 | 44 | 1021.0 |
| 20260903102503 | 17 | 121 | 4.8 | 4.8 | 0.00 | 0.00 | 0.00 | 44 | 1021.3 |
| 20260903102003 | 17 | 279 | 3.2 | 3.2 | 0.00 | 0.00 | 0.00 | 47 | 1021.0 |
| 20260903100504 | 19 | 192 | 4.8 | 11.3 | 0.00 | 0.00 | 0.00 | 41 | 1021.0 |
| 20260903100004 | 19 | 192 | 4.8 | 11.3 | 0.00 | 0.00 | 0.00 | 41 | 1020.9 |
| 20260903095504 | 18 | 184 | 8.0 | 11.3 | 0.00 | 0.00 | 0.00 | 42 | 1021.0 |
| 20260903092503 | 16 | 97 | 6.4 | 6.4 | 0.00 | 0.00 | 0.00 | 40 | 1021.6 |
| 20260903092004 | 16 | 97 | 6.4 | 6.4 | 0.00 | 0.00 | 0.00 | 40 | 1021.4 |
| 20260903091504 | 16 | 97 | 6.4 | 6.4 | 0.00 | 0.00 | 0.00 | 40 | 1021.3 |
| 20260903085503 | 16 | 97 | 6.4 | 6.4 | 0.00 | 0.00 | 0.00 | 40 | 1021.4 |
| 20260903085003 | 16 | 97 | 6.4 | 6.4 | 0.00 | 0.00 | 0.00 | 40 | 1021.1 |
| 20260903084503 | 16 | 97 | 6.4 | 6.4 | 0.00 | 0.00 | 0.00 | 40 | 1021.0 |
| 20260903084004 | 16 | 97 | 6.4 | 6.4 | 0.00 | 0.00 | 0.00 | 40 | 1021.1 |
| 20260903083503 | 16 | 97 | 6.4 | 6.4 | 0.00 | 0.00 | 0.00 | 40 | 1021.3 |
| 20260903083003 | 16 | 97 | 6.4 | 6.4 | 0.00 | 0.00 | 0.00 | 40 | 1021.4 |
| 20260903082503 | 18 | 269 | 4.8 | 4.8 | 0.00 | 0.00 | 0.00 | 32 | 1021.4 |
| 20260903082003 | 18 | 269 | 4.8 | 4.8 | 0.00 | 0.00 | 0.00 | 32 | 1021.4 |
| 20260903081504 | 18 | 269 | 4.8 | 4.8 | 0.00 | 0.00 | 0.00 | 32 | 1021.3 |
| 20260903081003 | 18 | 269 | 4.8 | 4.8 | 0.00 | 0.00 | 0.00 | 32 | 1021.4 |
| 20260903080503 | 18 | 269 | 4.8 | 4.8 | 0.00 | 0.00 | 0.00 | 32 | 1021.6 |
| 20260903080004 | 18 | 269 | 4.8 | 4.8 | 0.00 | 0.00 | 0.00 | 32 | 1021.6 |
| 20260903075503 | 18 | 269 | 4.8 | 4.8 | 0.00 | 0.00 | 0.00 | 32 | 1021.5 |
| 20260903075003 | 18 | 269 | 4.8 | 4.8 | 0.00 | 0.00 | 0.00 | 32 | 1021.7 |
| 20260903074503 | 18 | 269 | 4.8 | 4.8 | 0.00 | 0.00 | 0.00 | 32 | 1021.5 |
| 20260903074004 | 18 | 269 | 4.8 | 4.8 | 0.00 | 0.00 | 0.00 | 32 | 1021.7 |
| 20260903073504 | 18 | 269 | 4.8 | 4.8 | 0.00 | 0.00 | 0.00 | 32 | 1021.6 |
| 20260903073004 | 18 | 269 | 4.8 | 4.8 | 0.00 | 0.00 | 0.00 | 32 | 1021.8 |
| 20260903071003 | 19 | 232 | 6.4 | 6.4 | 0.00 | 0.00 | 0.00 | 33 | 1021.7 |
| 20260903070503 | 19 | 232 | 6.4 | 6.4 | 0.00 | 0.00 | 0.00 | 33 | 1021.6 |
| 20260903070004 | 19 | 232 | 6.4 | 6.4 | 0.00 | 0.00 | 0.00 | 33 | 1021.7 |
| 20260903065504 | 19 | 232 | 6.4 | 6.4 | 0.00 | 0.00 | 0.00 | 33 | 1021.8 |
| 20260903065004 | 19 | 232 | 6.4 | 6.4 | 0.00 | 0.00 | 0.00 | 33 | 1021.8 |
| 20260903064504 | 19 | 232 | 6.4 | 6.4 | 0.00 | 0.00 | 0.00 | 33 | 1021.7 |
| 20260903064003 | 19 | 232 | 6.4 | 6.4 | 0.00 | 0.00 | 0.00 | 33 | 1021.7 |
| 20260903063503 | 19 | 232 | 6.4 | 6.4 | 0.00 | 0.00 | 0.00 | 33 | 1021.8 |
| 20260903063003 | 19 | 232 | 6.4 | 6.4 | 0.00 | 0.00 | 0.00 | 33 | 1021.7 |
| 20260903061004 | 20 | 182 | 11.3 | 12.9 | 0.00 | 0.00 | 0.00 | 32 | 1021.9 |
| 20260903060504 | 20 | 182 | 11.3 | 12.9 | 0.00 | 0.00 | 0.00 | 32 | 1021.8 |
| 20260903060004 | 20 | 182 | 11.3 | 12.9 | 0.00 | 0.00 | 0.00 | 32 | 1021.7 |
| 20260903055504 | 20 | 182 | 11.3 | 12.9 | 0.00 | 0.00 | 0.00 | 32 | 1021.8 |
| 20260903055004 | 20 | 182 | 11.3 | 12.9 | 0.00 | 0.00 | 0.00 | 32 | 1021.7 |
| 20260903054503 | 20 | 182 | 11.3 | 12.9 | 0.00 | 0.00 | 0.00 | 32 | 1021.5 |
| 20260903054003 | 20 | 215 | 14.5 | 14.5 | 0.00 | 0.00 | 0.00 | 33 | 1021.6 |
| 20260903053504 | 20 | 179 | 11.3 | 16.1 | 0.00 | 0.00 | 0.00 | 34 | 1021.5 |
| 20260903053003 | 20 | 179 | 11.3 | 16.1 | 0.00 | 0.00 | 0.00 | 34 | 1021.4 |
| 20260903052503 | 20 | 179 | 11.3 | 16.1 | 0.00 | 0.00 | 0.00 | 34 | 1021.4 |
| 20260903052003 | 20 | 179 | 11.3 | 16.1 | 0.00 | 0.00 | 0.00 | 34 | 1021.5 |
| 20260903033004 | 22 | 213 | 16.1 | 19.3 | 0.00 | 0.00 | 0.00 | 36 | 1021.4 |
| 20260903032504 | 22 | 213 | 16.1 | 19.3 | 0.00 | 0.00 | 0.00 | 36 | 1021.4 |
| 20260903032004 | 22 | 213 | 16.1 | 19.3 | 0.00 | 0.00 | 0.00 | 36 | 1021.5 |
| 20260903031504 | 22 | 213 | 16.1 | 19.3 | 0.00 | 0.00 | 0.00 | 36 | 1021.1 |
| 20260903031003 | 22 | 213 | 16.1 | 19.3 | 0.00 | 0.00 | 0.00 | 36 | 1021.1 |
| 20260903030504 | 22 | 213 | 16.1 | 19.3 | 0.00 | 0.00 | 0.00 | 36 | 1021.0 |
| 20260903030004 | 22 | 213 | 16.1 | 19.3 | 0.00 | 0.00 | 0.00 | 36 | 1021.1 |
| 20260903025504 | 22 | 213 | 16.1 | 19.3 | 0.00 | 0.00 | 0.00 | 36 | 1021.0 |
| 20260903025004 | 22 | 213 | 16.1 | 19.3 | 0.00 | 0.00 | 0.00 | 36 | 1021.0 |
| 20260903024504 | 22 | 213 | 16.1 | 19.3 | 0.00 | 0.00 | 0.00 | 36 | 1020.8 |
| 20260903024004 | 22 | 200 | 12.9 | 14.5 | 0.00 | 0.00 | 0.00 | 37 | 1020.7 |
| 20260903023504 | 22 | 200 | 12.9 | 14.5 | 0.00 | 0.00 | 0.00 | 37 | 1020.7 |
| 20260903023003 | 22 | 200 | 12.9 | 14.5 | 0.00 | 0.00 | 0.00 | 37 | 1020.6 |
| 20260903022504 | 22 | 200 | 12.9 | 14.5 | 0.00 | 0.00 | 0.00 | 37 | 1020.9 |
| 20260903022004 | 22 | 200 | 12.9 | 14.5 | 0.00 | 0.00 | 0.00 | 37 | 1020.8 |
| 20260903021504 | 22 | 211 | 17.7 | 17.7 | 0.00 | 0.00 | 0.00 | 36 | 1020.8 |
| 20260903021004 | 23 | 200 | 17.7 | 22.5 | 0.00 | 0.00 | 0.00 | 36 | 1020.7 |
| 20260903020504 | 23 | 200 | 17.7 | 22.5 | 0.00 | 0.00 | 0.00 | 36 | 1020.8 |
| 20260903020004 | 23 | 200 | 17.7 | 22.5 | 0.00 | 0.00 | 0.00 | 36 | 1021.0 |
| 20260903015504 | 23 | 200 | 17.7 | 22.5 | 0.00 | 0.00 | 0.00 | 36 | 1020.8 |
| 20260903015004 | 23 | 226 | 12.9 | 30.6 | 0.00 | 0.00 | 0.00 | 36 | 1020.7 |
| 20260903014503 | 23 | 203 | 20.9 | 24.1 | 0.00 | 0.00 | 0.00 | 35 | 1020.7 |
| 20260903014003 | 23 | 203 | 20.9 | 24.1 | 0.00 | 0.00 | 0.00 | 35 | 1020.7 |
| 20260903013503 | 23 | 203 | 20.9 | 24.1 | 0.00 | 0.00 | 0.00 | 35 | 1020.8 |
| 20260903013003 | 24 | 204 | 20.9 | 27.4 | 0.00 | 0.00 | 0.00 | 34 | 1020.7 |
| 20260903012503 | 24 | 247 | 22.5 | 24.1 | 0.00 | 0.00 | 0.00 | 33 | 1020.6 |
| 20260903012003 | 24 | 247 | 22.5 | 24.1 | 0.00 | 0.00 | 0.00 | 33 | 1020.6 |
| 20260903011504 | 24 | 229 | 11.3 | 19.3 | 0.00 | 0.00 | 0.00 | 34 | 1020.9 |
| 20260903011004 | 25 | 211 | 14.5 | 16.1 | 0.00 | 0.00 | 0.00 | 34 | 1020.8 |
| 20260903010503 | 25 | 204 | 17.7 | 27.4 | 0.00 | 0.00 | 0.00 | 33 | 1020.9 |
| 20260903010004 | 25 | 217 | 20.9 | 30.6 | 0.00 | 0.00 | 0.00 | 34 | 1020.7 |
| 20260903005504 | 25 | 169 | 16.1 | 32.2 | 0.00 | 0.00 | 0.00 | 34 | 1020.8 |
| 20260903005003 | 25 | 176 | 12.9 | 24.1 | 0.00 | 0.00 | 0.00 | 34 | 1020.8 |
| 20260903004504 | 25 | 191 | 8.0 | 12.9 | 0.00 | 0.00 | 0.00 | 33 | 1020.6 |
| 20260903004004 | 25 | 204 | 12.9 | 33.8 | 0.00 | 0.00 | 0.00 | 33 | 1020.8 |
| 20260903003504 | 25 | 175 | 9.7 | 17.7 | 0.00 | 0.00 | 0.00 | 33 | 1020.8 |
| 20260903003003 | 25 | 207 | 27.4 | 37.0 | 0.00 | 0.00 | 0.00 | 34 | 1020.7 |
| 20260903002503 | 25 | 214 | 22.5 | 22.5 | 0.00 | 0.00 | 0.00 | 34 | 1020.7 |
| 20260903002003 | 25 | 210 | 14.5 | 24.1 | 0.00 | 0.00 | 0.00 | 34 | 1020.8 |
| 20260903001503 | 25 | 159 | 20.9 | 41.8 | 0.00 | 0.00 | 0.00 | 33 | 1021.0 |
| 20260903001004 | 26 | 217 | 11.3 | 16.1 | 0.00 | 0.00 | 0.00 | 34 | 1020.8 |
| 20260903000504 | 25 | 213 | 20.9 | 40.2 | 0.00 | 0.00 | 0.00 | 35 | 1020.7 |
| 20260903000005 | 25 | 221 | 11.3 | 35.4 | 0.00 | 0.00 | 0.00 | 35 | 1020.9 |
| 20260902235503 | 25 | 208 | 27.4 | 27.4 | 0.00 | 0.00 | 0.00 | 35 | 1020.7 |
| 20260902235003 | 25 | 218 | 19.3 | 30.6 | 0.00 | 0.00 | 0.00 | 35 | 1020.8 |
| 20260902234504 | 26 | 226 | 17.7 | 25.7 | 0.00 | 0.00 | 0.00 | 35 | 1021.1 |
| 20260902232504 | 25 | 232 | 9.7 | 17.7 | 0.00 | 0.00 | 0.00 | 37 | 1020.8 |
| 20260902232004 | 25 | 232 | 9.7 | 17.7 | 0.00 | 0.00 | 0.00 | 37 | 1021.1 |
| 20260902230003 | 26 | 191 | 4.8 | 19.3 | 0.00 | 0.00 | 0.00 | 37 | 1021.0 |
| 20260902225503 | 26 | 198 | 25.7 | 29.0 | 0.00 | 0.00 | 0.00 | 38 | 1021.0 |
| 20260902225004 | 26 | 219 | 12.9 | 33.8 | 0.00 | 0.00 | 0.00 | 38 | 1021.0 |
| 20260902224503 | 26 | 228 | 12.9 | 29.0 | 0.00 | 0.00 | 0.00 | 37 | 1021.5 |
| 20260902224003 | 26 | 211 | 20.9 | 29.0 | 0.00 | 0.00 | 0.00 | 38 | 1021.3 |
| 20260902223504 | 25 | 254 | 12.9 | 25.7 | 0.00 | 0.00 | 0.00 | 40 | 1021.3 |
| 20260902223004 | 25 | 189 | 12.9 | 22.5 | 0.00 | 0.00 | 0.00 | 40 | 1021.4 |
| 20260902222504 | 26 | 206 | 20.9 | 24.1 | 0.00 | 0.00 | 0.00 | 39 | 1021.4 |
| 20260902222004 | 26 | 277 | 17.7 | 35.4 | 0.00 | 0.00 | 0.00 | 40 | 1021.5 |
| 20260902221504 | 26 | 203 | 19.3 | 32.2 | 0.00 | 0.00 | 0.00 | 39 | 1021.4 |
| 20260902221004 | 27 | 183 | 11.3 | 20.9 | 0.00 | 0.00 | 0.00 | 38 | 1021.4 |
| 20260902220504 | 26 | 199 | 14.5 | 24.1 | 0.00 | 0.00 | 0.00 | 39 | 1021.5 |
| 20260902220003 | 26 | 212 | 43.5 | 43.5 | 0.00 | 0.00 | 0.00 | 39 | 1021.6 |
| 20260902215503 | 26 | 210 | 8.0 | 22.5 | 0.00 | 0.00 | 0.00 | 40 | 1021.6 |
| 20260902215004 | 25 | 225 | 22.5 | 45.1 | 0.00 | 0.00 | 0.00 | 39 | 1021.8 |
| 20260902214504 | 25 | 225 | 24.1 | 46.7 | 0.00 | 0.00 | 0.00 | 38 | 1021.7 |
| 20260902214004 | 26 | 211 | 29.0 | 33.8 | 0.00 | 0.00 | 0.00 | 39 | 1021.8 |
| 20260902213504 | 26 | 221 | 17.7 | 27.4 | 0.00 | 0.00 | 0.00 | 38 | 1021.8 |
| 20260902213004 | 26 | 215 | 25.7 | 32.2 | 0.00 | 0.00 | 0.00 | 39 | 1021.7 |
| 20260902212504 | 27 | 204 | 29.0 | 30.6 | 0.00 | 0.00 | 0.00 | 39 | 1022.0 |
| 20260902212005 | 26 | 209 | 17.7 | 24.1 | 0.00 | 0.00 | 0.00 | 39 | 1021.8 |
| 20260902211504 | 26 | 209 | 17.7 | 24.1 | 0.00 | 0.00 | 0.00 | 39 | 1022.2 |
| 20260902211004 | 25 | 217 | 24.1 | 25.7 | 0.00 | 0.00 | 0.00 | 40 | 1021.9 |
| 20260902210504 | 25 | 217 | 24.1 | 25.7 | 0.00 | 0.00 | 0.00 | 40 | 1022.3 |
| 20260902210004 | 25 | 217 | 24.1 | 25.7 | 0.00 | 0.00 | 0.00 | 40 | 1022.3 |
| 20260902205504 | 25 | 217 | 24.1 | 25.7 | 0.00 | 0.00 | 0.00 | 40 | 1022.2 |
| 20260902205004 | 25 | 217 | 24.1 | 25.7 | 0.00 | 0.00 | 0.00 | 40 | 1022.0 |
| 20260902204504 | 25 | 217 | 24.1 | 25.7 | 0.00 | 0.00 | 0.00 | 40 | 1022.3 |
| 20260902204004 | 25 | 217 | 24.1 | 25.7 | 0.00 | 0.00 | 0.00 | 40 | 1022.2 |
| 20260902203504 | 25 | 217 | 24.1 | 25.7 | 0.00 | 0.00 | 0.00 | 40 | 1022.2 |
| 20260902203003 | 25 | 217 | 24.1 | 25.7 | 0.00 | 0.00 | 0.00 | 40 | 1022.2 |
| 20260902202504 | 25 | 199 | 16.1 | 45.1 | 0.00 | 0.00 | 0.00 | 44 | 1022.4 |
| 20260902202004 | 24 | 232 | 17.7 | 35.4 | 0.00 | 0.00 | 0.00 | 46 | 1022.3 |
| 20260902201506 | 25 | 226 | 14.5 | 30.6 | 0.00 | 0.00 | 0.00 | 46 | 1022.3 |
| 20260902201004 | 25 | 212 | 27.4 | 32.2 | 0.00 | 0.00 | 0.00 | 45 | 1022.4 |
| 20260902192503 | 24 | 165 | 11.3 | 30.6 | 0.00 | 0.00 | 0.00 | 47 | 1022.7 |
| 20260902192004 | 24 | 212 | 25.7 | 40.2 | 0.00 | 0.00 | 0.00 | 46 | 1022.6 |
| 20260902191503 | 25 | 207 | 22.5 | 30.6 | 0.00 | 0.00 | 0.00 | 45 | 1022.6 |
| 20260902191004 | 25 | 231 | 29.0 | 30.6 | 0.00 | 0.00 | 0.00 | 44 | 1022.7 |
| 20260902190504 | 25 | 168 | 24.1 | 35.4 | 0.00 | 0.00 | 0.00 | 45 | 1022.8 |
| 20260902190005 | 25 | 210 | 25.7 | 35.4 | 0.00 | 0.00 | 0.00 | 44 | 1022.8 |
| 20260902185504 | 25 | 215 | 30.6 | 32.2 | 0.00 | 0.00 | 0.00 | 44 | 1022.9 |
| 20260902185003 | 25 | 185 | 16.1 | 32.2 | 0.00 | 0.00 | 0.00 | 44 | 1022.7 |
| 20260902184505 | 24 | 189 | 12.9 | 53.1 | 0.00 | 0.00 | 0.00 | 46 | 1023.0 |
| 20260902183004 | 25 | 199 | 24.1 | 30.6 | 0.00 | 0.00 | 0.00 | 48 | 1022.8 |
| 20260902182504 | 23 | 211 | 20.9 | 33.8 | 0.00 | 0.00 | 0.00 | 49 | 1022.9 |
| 20260902182004 | 23 | 211 | 20.9 | 33.8 | 0.00 | 0.00 | 0.00 | 49 | 1022.9 |
| 20260902181504 | 23 | 211 | 20.9 | 33.8 | 0.00 | 0.00 | 0.00 | 49 | 1023.0 |
| 20260902181004 | 24 | 252 | 11.3 | 22.5 | 0.00 | 0.00 | 0.00 | 48 | 1023.0 |
| 20260902180504 | 24 | 252 | 11.3 | 22.5 | 0.00 | 0.00 | 0.00 | 48 | 1023.0 |
| 20260902174503 | 23 | 213 | 35.4 | 38.6 | 0.00 | 0.00 | 0.00 | 49 | 1023.1 |
| 20260902174003 | 24 | 207 | 25.7 | 29.0 | 0.00 | 0.00 | 0.00 | 48 | 1023.4 |
| 20260902173504 | 23 | 182 | 19.3 | 22.5 | 0.00 | 0.00 | 0.00 | 50 | 1023.4 |
| 20260902173003 | 23 | 182 | 19.3 | 22.5 | 0.00 | 0.00 | 0.00 | 50 | 1023.5 |
| 20260902172503 | 24 | 225 | 17.7 | 30.6 | 0.00 | 0.00 | 0.00 | 48 | 1023.2 |
| 20260902172004 | 23 | 215 | 12.9 | 30.6 | 0.00 | 0.00 | 0.00 | 49 | 1023.2 |
| 20260902171504 | 24 | 186 | 12.9 | 27.4 | 0.00 | 0.00 | 0.00 | 47 | 1023.6 |
| 20260902171004 | 24 | 191 | 11.3 | 19.3 | 0.00 | 0.00 | 0.00 | 47 | 1023.1 |
| 20260902170504 | 24 | 191 | 11.3 | 19.3 | 0.00 | 0.00 | 0.00 | 47 | 1023.2 |
| 20260902164504 | 23 | 175 | 20.9 | 25.7 | 0.00 | 0.00 | 0.00 | 48 | 1023.1 |
| 20260902164004 | 23 | 197 | 12.9 | 20.9 | 0.00 | 0.00 | 0.00 | 47 | 1023.2 |
| 20260902163504 | 23 | 169 | 17.7 | 20.9 | 0.00 | 0.00 | 0.00 | 47 | 1023.1 |
| 20260902163003 | 23 | 178 | 29.0 | 43.5 | 0.00 | 0.00 | 0.00 | 47 | 1023.0 |
| 20260902162504 | 23 | 141 | 12.9 | 25.7 | 0.00 | 0.00 | 0.00 | 46 | 1023.2 |
| 20260902162005 | 23 | 228 | 22.5 | 25.7 | 0.00 | 0.00 | 0.00 | 47 | 1022.8 |
| 20260902160005 | 22 | 189 | 24.1 | 25.7 | 0.00 | 0.00 | 0.00 | 49 | 1022.8 |
| 20260902155504 | 22 | 174 | 17.7 | 29.0 | 0.00 | 0.00 | 0.00 | 47 | 1022.9 |
| 20260902155004 | 22 | 196 | 17.7 | 17.7 | 0.00 | 0.00 | 0.00 | 50 | 1022.6 |
| 20260902154504 | 22 | 196 | 17.7 | 17.7 | 0.00 | 0.00 | 0.00 | 50 | 1022.8 |
| 20260902154004 | 22 | 173 | 6.4 | 9.7 | 0.00 | 0.00 | 0.00 | 50 | 1022.8 |
| 20260902153504 | 22 | 209 | 19.3 | 29.0 | 0.00 | 0.00 | 0.00 | 49 | 1022.8 |
| 20260902153004 | 22 | 209 | 19.3 | 29.0 | 0.00 | 0.00 | 0.00 | 49 | 1022.9 |
| 20260902152504 | 22 | 209 | 19.3 | 29.0 | 0.00 | 0.00 | 0.00 | 49 | 1022.8 |
| 20260902152004 | 22 | 222 | 12.9 | 17.7 | 0.00 | 0.00 | 0.00 | 52 | 1022.8 |
| 20260902151504 | 22 | 211 | 12.9 | 24.1 | 0.00 | 0.00 | 0.00 | 53 | 1022.6 |
| 20260902151004 | 21 | 171 | 22.5 | 27.4 | 0.00 | 0.00 | 0.00 | 52 | 1022.8 |
| 20260902150504 | 21 | 171 | 22.5 | 27.4 | 0.00 | 0.00 | 0.00 | 52 | 1022.9 |
| 20260902150003 | 21 | 171 | 22.5 | 27.4 | 0.00 | 0.00 | 0.00 | 52 | 1022.7 |
| 20260902145503 | 21 | 171 | 22.5 | 27.4 | 0.00 | 0.00 | 0.00 | 52 | 1022.8 |
| 20260902145004 | 21 | 168 | 14.5 | 14.5 | 0.00 | 0.00 | 0.00 | 56 | 1022.9 |
| 20260902144503 | 21 | 168 | 14.5 | 14.5 | 0.00 | 0.00 | 0.00 | 56 | 1022.9 |
| 20260902144004 | 21 | 168 | 14.5 | 14.5 | 0.00 | 0.00 | 0.00 | 56 | 1022.9 |
| 20260902134504 | 17 | 182 | 4.8 | 8.0 | 0.00 | 0.00 | 0.00 | 77 | 1022.5 |
| 20260902134004 | 17 | 182 | 4.8 | 8.0 | 0.00 | 0.00 | 0.00 | 77 | 1022.5 |
| 20260902133504 | 17 | 182 | 4.8 | 8.0 | 0.00 | 0.00 | 0.00 | 77 | 1022.6 |
| 20260902133003 | 17 | 182 | 4.8 | 8.0 | 0.00 | 0.00 | 0.00 | 77 | 1022.5 |
| 20260902132503 | 17 | 182 | 4.8 | 8.0 | 0.00 | 0.00 | 0.00 | 77 | 1022.3 |
| 20260902132004 | 17 | 182 | 4.8 | 8.0 | 0.00 | 0.00 | 0.00 | 77 | 1022.3 |
| 20260902131503 | 17 | 182 | 4.8 | 8.0 | 0.00 | 0.00 | 0.00 | 77 | 1022.4 |
| 20260902131003 | 17 | 182 | 4.8 | 8.0 | 0.00 | 0.00 | 0.00 | 77 | 1022.3 |
| 20260902130504 | 17 | 182 | 4.8 | 8.0 | 0.00 | 0.00 | 0.00 | 77 | 1022.3 |